TimePDT,TemperatureF,Dew PointF,Humidity,Sea Level PressureIn,VisibilityMPH,Wind Direction,Wind SpeedMPH,Gust SpeedMPH,PrecipitationIn,Events,Conditions,WindDirDegrees,DateUTC
12:55 AM,55.9,21.0,26,29.92,10.0,WNW,20.7,-,N/A,,Clear,300,2013-04-25 07:55:00
1:55 AM,55.0,24.1,30,29.91,10.0,WNW,21.9,28.8,N/A,,Clear,300,2013-04-25 08:55:00
2:55 AM,55.0,24.1,30,29.92,10.0,WNW,26.5,-,N/A,,Clear,300,2013-04-25 09:55:00
3:55 AM,52.0,25.0,35,29.92,10.0,NW,16.1,-,N/A,,Clear,310,2013-04-25 10:55:00
4:55 AM,53.1,26.1,35,29.94,10.0,WNW,11.5,-,N/A,,Clear,300,2013-04-25 11:55:00
5:55 AM,51.1,27.0,39,29.94,10.0,Variable,3.5,-,N/A,,Clear,0,2013-04-25 12:55:00
6:55 AM,52.0,27.0,38,29.94,10.0,NW,6.9,-,N/A,,Clear,320,2013-04-25 13:55:00
7:55 AM,55.0,28.0,35,29.95,10.0,NW,5.8,-,N/A,,Clear,320,2013-04-25 14:55:00
8:55 AM,59.0,30.9,35,29.95,10.0,West,10.4,-,N/A,,Clear,280,2013-04-25 15:55:00
9:55 AM,63.0,30.9,30,29.95,10.0,WNW,13.8,-,N/A,,Clear,300,2013-04-25 16:55:00
10:55 AM,66.9,30.9,26,29.95,10.0,WNW,15.0,19.6,N/A,,Clear,290,2013-04-25 17:55:00
11:55 AM,70.0,33.1,26,29.93,10.0,WNW,13.8,-,N/A,,Clear,300,2013-04-25 18:55:00
12:55 PM,72.0,32.0,23,29.94,10.0,West,15.0,-,N/A,,Clear,280,2013-04-25 19:55:00
1:55 PM,75.0,33.1,22,29.92,10.0,NW,15.0,-,N/A,,Clear,310,2013-04-25 20:55:00
2:55 PM,77.0,32.0,19,29.92,10.0,NW,17.3,-,N/A,,Clear,310,2013-04-25 21:55:00
3:55 PM,75.9,32.0,20,29.91,10.0,NW,21.9,28.8,N/A,,Clear,310,2013-04-25 22:55:00
4:55 PM,75.0,33.1,22,29.92,10.0,WNW,21.9,28.8,N/A,,Clear,290,2013-04-25 23:55:00
5:55 PM,72.0,32.0,23,29.93,10.0,WNW,25.3,33.4,N/A,,Clear,300,2013-04-26 00:55:00
6:55 PM,70.0,32.0,25,29.94,10.0,WNW,23.0,34.5,N/A,,Clear,300,2013-04-26 01:55:00
7:55 PM,66.9,33.1,28,29.97,10.0,NW,24.2,29.9,N/A,,Clear,310,2013-04-26 02:55:00
8:55 PM,64.9,34.0,32,30.00,10.0,WNW,16.1,-,N/A,,Clear,300,2013-04-26 03:55:00
9:55 PM,64.0,34.0,33,30.02,10.0,WNW,18.4,27.6,N/A,,Clear,290,2013-04-26 04:55:00
10:55 PM,62.1,35.1,37,30.04,10.0,West,10.4,-,N/A,,Clear,280,2013-04-26 05:55:00